Weather History for Crescent City, CA

Change the Weather History Date:

Sunday, October 6, 2013

  Actual Average Record
Temperature  
Mean Temperature 61 °F 54 °F  
Max Temperature 74 °F 61 °F 88 °F (1956)
Min Temperature 48 °F 47 °F 40 °F (1969)
Degree Days  
Heating Degree Days 6 11  
Month to date heating degree days 66  
Since 1 July heating degree days 870  
Cooling Degree Days 0 0  
Month to date cooling degree days 0  
Year to date cooling degree days 0  
Growing Degree Days 10 (Base 50)    
Moisture  
Dew Point 39 °F    
Average Humidity 43    
Maximum Humidity 66    
Minimum Humidity 19    
Precipitation  
Precipitation 0.00 in 0.08 in 1.70 in (1960)
Month to date precipitation 0.00 0.40  
Year to date precipitation 24.98 39.19  
Since 1 July precipitation 5.05 2.26  
Snow  
Snow 0.00 in - - ()
Month to date snowfall 0.0  
Since 1 July snowfall 0.0  
Since 1 September snowfall 0.0  
Snow Depth -    
Sea Level Pressure  
Sea Level Pressure 30.09 in    
Wind  
Wind Speed 7 mph (SE)    
Max Wind Speed 14 mph    
Max Gust Speed 18 mph    
Visibility 10 miles    
Events      
T = Trace of Precipitation, MM = Missing Value Source: NWS Daily Summary

Daily Weather History Graph

Daily Weather History Graph

Search for Another Location

Airport:

Trip Planner

Search our weather history database for the weather conditions in past years. The results will help you decide how hot, cold, wet, or windy it might be!

Date:

Astronomy

Oct. 06, 2013 Rise Set
Actual Time 7:19 AM PDT 6:49 PM PDT
Civil Twilight 6:51 AM PDT 7:17 PM PDT
Nautical Twilight 6:19 AM PDT 7:49 PM PDT
Astronomical Twilight 5:47 AM PDT 8:21 PM PDT
Moon 9:12 AM PDT (10/6) 7:50 PM PDT (10/6)
Length of Visible Light 12h 25m
Length of Day
11h 29m
Waxing Crescent, 4% of the Moon is Illuminated
Oct 6
Waxing Crescent
Oct 11
First Quarter
Oct 18
Full
Oct 26
Last Quarter
Nov 3
New

Hourly Weather History & Observations

Time (PDT) Temp. Dew Point Humidity Pressure Visibility Wind Dir Wind Speed Gust Speed Precip Events Conditions
12:56 AM 54.0 °F 39.9 °F 59% 30.13 in 10.0 mi East 6.9 mph - N/A   Clear
1:56 AM 54.0 °F 39.0 °F 57% 30.12 in 10.0 mi East 6.9 mph - N/A   Clear
2:56 AM 53.1 °F 39.0 °F 59% 30.10 in 10.0 mi East 5.8 mph - N/A   Clear
3:56 AM 52.0 °F 37.9 °F 59% 30.09 in 10.0 mi ESE 3.5 mph - N/A   Clear
4:56 AM 48.9 °F 37.9 °F 66% 30.08 in 10.0 mi East 4.6 mph - N/A   Clear
5:56 AM 50.0 °F 37.9 °F 63% 30.08 in 10.0 mi ESE 4.6 mph - N/A   Clear
6:56 AM 50.0 °F 37.9 °F 63% 30.09 in 10.0 mi East 3.5 mph - N/A   Clear
7:56 AM 50.0 °F 39.0 °F 66% 30.09 in 10.0 mi East 5.8 mph - N/A   Clear
8:56 AM 57.9 °F 41.0 °F 53% 30.10 in 10.0 mi East 6.9 mph - N/A   Clear
9:56 AM 66.0 °F 41.0 °F 40% 30.11 in 10.0 mi SSE 9.2 mph - N/A   Clear
10:56 AM 70.0 °F 39.9 °F 33% 30.11 in 10.0 mi SSE 11.5 mph - N/A   Clear
11:56 AM 73.0 °F 37.9 °F 28% 30.10 in 10.0 mi SSE 11.5 mph - N/A   Clear
12:56 PM 73.9 °F 42.1 °F 32% 30.09 in 10.0 mi SSE 10.4 mph - N/A   Clear
1:56 PM 72.0 °F 45.0 °F 38% 30.08 in 10.0 mi SSW 5.8 mph - N/A   Clear
2:56 PM 68.0 °F 37.9 °F 33% 30.09 in 10.0 mi SW 8.1 mph - N/A   Clear
3:56 PM 71.1 °F 27.0 °F 19% 30.08 in 10.0 mi SSE 4.6 mph - N/A   Clear
4:56 PM 70.0 °F 28.0 °F 21% 30.07 in 10.0 mi Calm Calm - N/A   Clear
5:56 PM 64.9 °F 35.1 °F 33% 30.07 in 10.0 mi West 5.8 mph - N/A   Clear
6:56 PM 57.9 °F 41.0 °F 53% 30.07 in 9.0 mi Calm Calm - N/A   Clear
7:56 PM 54.0 °F 39.9 °F 59% 30.07 in 10.0 mi Calm Calm - N/A   Clear
8:56 PM 48.9 °F 39.9 °F 71% 30.07 in 10.0 mi Calm Calm - N/A   Clear
9:56 PM 51.1 °F 42.1 °F 71% 30.06 in 10.0 mi East 6.9 mph - N/A   Clear
10:56 PM 46.0 °F 39.0 °F 76% 30.08 in 8.0 mi Calm Calm - N/A   Clear
11:56 PM 46.9 °F 39.9 °F 77% 30.08 in 10.0 mi Calm Calm - N/A   Clear